Weather History for Anoka County, MN

Change the Weather History Date:

Sunday, January 20, 2013

  Actual Average Record
Temperature  
Mean Temperature 3 °F -  
Max Temperature 6 °F 20 °F 32 °F (2002)
Min Temperature 0 °F 5 °F -13 °F (2008)
Degree Days  
Heating Degree Days 62    
Moisture  
Dew Point -6 °F    
Average Humidity 70    
Maximum Humidity 79    
Minimum Humidity 56    
Precipitation  
Precipitation 0.00 in - - ()
Sea Level Pressure  
Sea Level Pressure 30.28 in    
Wind  
Wind Speed 13 mph (WNW)    
Max Wind Speed 17 mph    
Max Gust Speed 25 mph    
Visibility 10 miles    
Events Snow    
Averages and records for this station are not official NWS values.
T = Trace of Precipitation, MM = Missing Value Source: NWS Daily Summary

Daily Weather History Graph

Daily Weather History Graph

Search for Another Location

Airport:

Trip Planner

Search our weather history database for the weather conditions in past years. The results will help you decide how hot, cold, wet, or windy it might be!

Date:

Astronomy

Jan. 20, 2013 Rise Set
Actual Time 7:44 AM CST 5:04 PM CST
Civil Twilight 7:12 AM CST 5:36 PM CST
Nautical Twilight 6:35 AM CST 6:12 PM CST
Astronomical Twilight 6:00 AM CST 6:47 PM CST
Moon 12:06 PM CST 2:15 AM CST
Length of Visible Light 10h 24m
Length of Day
9h 19m
Waxing Gibbous, 66% of the Moon is Illuminated
Jan 20
Waxing Gibbous
Jan 26
Full
Feb 3
Last Quarter
Feb 10
New
Feb 17
First Quarter

Hourly Weather History & Observations

Time (CST) Temp. Windchill Dew Point Humidity Pressure Visibility Wind Dir Wind Speed Gust Speed Precip Events Conditions
12:14 AM 3.2 °F -15.9 °F -4.0 °F 72% 30.21 in 10.0 mi WNW 16.1 mph 21.9 mph N/A   Clear
12:34 AM 3.2 °F -16.5 °F -4.0 °F 72% 30.22 in 10.0 mi West 17.3 mph 23.0 mph N/A   Clear
12:54 AM 3.2 °F -15.9 °F -4.0 °F 72% 30.22 in 10.0 mi WNW 16.1 mph 21.9 mph N/A   Clear
1:14 AM 1.4 °F -16.1 °F -5.8 °F 72% 30.23 in 10.0 mi WNW 12.7 mph - N/A   Clear
1:34 AM 1.4 °F -18.8 °F -5.8 °F 72% 30.23 in 10.0 mi WNW 17.3 mph - N/A   Clear
1:54 AM 1.4 °F -16.9 °F -5.8 °F 72% 30.24 in 10.0 mi WNW 13.8 mph 20.7 mph N/A   Clear
2:14 AM 1.4 °F -16.9 °F -5.8 °F 72% 30.26 in 10.0 mi WNW 13.8 mph 20.7 mph N/A   Clear
2:34 AM 1.4 °F -18.2 °F -5.8 °F 72% 30.27 in 10.0 mi WNW 16.1 mph - N/A   Clear
2:54 AM 1.4 °F -14.5 °F -5.8 °F 72% 30.28 in 10.0 mi West 10.4 mph 17.3 mph N/A   Clear
3:14 AM 1.4 °F -16.9 °F -5.8 °F 72% 30.29 in 10.0 mi West 13.8 mph 18.4 mph N/A   Clear
3:34 AM 1.4 °F -16.9 °F -5.8 °F 72% 30.29 in 10.0 mi WNW 13.8 mph 18.4 mph N/A   Clear
3:54 AM 1.4 °F -15.3 °F -5.8 °F 72% 30.29 in 10.0 mi WNW 11.5 mph - N/A   Clear
4:14 AM 1.4 °F -16.1 °F -5.8 °F 72% 30.30 in 10.0 mi West 12.7 mph - N/A   Clear
4:34 AM 1.4 °F -13.5 °F -5.8 °F 72% 30.29 in 10.0 mi West 9.2 mph - N/A   Clear
4:54 AM -0.4 °F -17.6 °F -7.6 °F 72% 30.29 in 10.0 mi West 11.5 mph - N/A   Clear
5:14 AM -0.4 °F -14.7 °F -7.6 °F 72% 30.30 in 10.0 mi WNW 8.1 mph - N/A   Clear
5:34 AM -0.4 °F -12.0 °F -7.6 °F 72% 30.30 in 10.0 mi WNW 5.8 mph - N/A   Clear
5:54 AM -0.4 °F -14.7 °F -7.6 °F 72% 30.29 in 10.0 mi WNW 8.1 mph - N/A   Clear
6:13 AM -0.4 °F -13.4 °F -7.6 °F 72% 30.30 in 10.0 mi WNW 6.9 mph - N/A   Clear
6:34 AM -0.4 °F -12.0 °F -7.6 °F 72% 30.30 in 10.0 mi WNW 5.8 mph - N/A   Clear
6:50 AM -0.4 °F -14.7 °F -7.6 °F 72% 30.31 in 12.0 mi WNW 8.1 mph - N/A   Mostly Cloudy
6:54 AM -0.4 °F -14.7 °F -7.6 °F 72% 30.31 in 10.0 mi West 8.1 mph - N/A   Clear
7:55 AM -0.4 °F -14.7 °F -7.6 °F 72% 30.31 in 12.0 mi WNW 8.1 mph - N/A   Mostly Cloudy
8:50 AM -0.4 °F -15.7 °F -7.6 °F 72% 30.34 in 10.0 mi WNW 9.2 mph - N/A   Mostly Cloudy
9:45 AM 1.4 °F -14.5 °F -5.8 °F 72% 30.36 in 10.0 mi WNW 10.4 mph - N/A   Mostly Cloudy
10:45 AM 3.2 °F -13.1 °F -5.8 °F 66% 30.38 in 10.0 mi WNW 11.5 mph 17.3 mph N/A   Mostly Cloudy
11:45 AM 5.0 °F -10.8 °F -5.8 °F 61% 30.35 in 10.0 mi WNW 11.5 mph - N/A   Overcast
12:45 PM 6.8 °F -8.6 °F -5.8 °F 56% 30.33 in 10.0 mi West 11.5 mph - N/A   Scattered Clouds
1:45 PM 6.8 °F -9.3 °F -5.8 °F 56% 30.31 in 10.0 mi West 12.7 mph - N/A   Mostly Cloudy
3:50 PM 6.8 °F -9.3 °F -2.2 °F 67% 30.28 in 10.0 mi West 12.7 mph 18.4 mph N/A   Overcast
4:55 PM 6.8 °F -8.6 °F 1.4 °F 79% 30.27 in 2.0 mi West 11.5 mph - N/A Snow Light Snow
5:20 PM 6.8 °F -6.9 °F -0.4 °F 72% 30.26 in 7.0 mi West 9.2 mph - N/A   Overcast
5:55 PM 6.8 °F -9.3 °F -2.2 °F 67% 30.25 in 10.0 mi West 12.7 mph - N/A   Scattered Clouds
6:50 PM 6.8 °F -5.9 °F -0.4 °F 72% 30.25 in 7.0 mi WSW 8.1 mph - N/A   Mostly Cloudy
7:45 PM 5.0 °F -10.0 °F -2.2 °F 72% 30.24 in 10.0 mi West 10.4 mph - N/A   Scattered Clouds
8:50 PM 3.2 °F -11.3 °F -5.8 °F 66% 30.23 in 10.0 mi West 9.2 mph - N/A   Clear
9:14 PM 1.4 °F -18.8 °F -5.8 °F 72% 30.23 in 10.0 mi West 17.3 mph 23.0 mph N/A   Clear
9:34 PM 1.4 °F -17.6 °F -5.8 °F 72% 30.23 in 10.0 mi WNW 15.0 mph - N/A   Clear
9:54 PM 1.4 °F -18.8 °F -7.6 °F 66% 30.24 in 10.0 mi WNW 17.3 mph 25.3 mph N/A   Clear
10:14 PM 1.4 °F -15.3 °F -7.6 °F 66% 30.25 in 10.0 mi WNW 11.5 mph 16.1 mph N/A   Clear
10:34 PM -0.4 °F -18.4 °F -9.4 °F 66% 30.25 in 10.0 mi NW 12.7 mph 24.2 mph N/A   Clear
10:54 PM -0.4 °F -19.2 °F -9.4 °F 66% 30.25 in 10.0 mi WNW 13.8 mph - N/A   Clear
11:14 PM -0.4 °F -18.4 °F -9.4 °F 66% 30.25 in 10.0 mi WNW 12.7 mph - N/A   Clear
11:34 PM -0.4 °F -19.2 °F -9.4 °F 66% 30.25 in 10.0 mi NW 13.8 mph - N/A   Clear
11:54 PM -0.4 °F -21.2 °F -11.2 °F 60% 30.25 in 10.0 mi WNW 17.3 mph 20.7 mph N/A   Clear